Location: Riedlingen
(48.1569°N, 9.4757°E)
Time: 06:51:24
(UTC+01:00)

ISS - Pass Details

Date: 11 November 2017
Orbit: 401 x 407 km, 51.6° (Epoch: 25 November)

Event Time Altitude Azimuth Distance (km) Brightness Sun altitude
Exits shadow 05:10:19 39° 39° (NE) 621 -2.7 -22.1°
Drops below altitude 10° 05:12:52 10° 80° (E) 1,456 0.1 -21.7°
Sets 05:15:00 0° 87° (E) 2,315 1.6 -21.4°
